sat.trackr.live / text

‹ back to catalog

AL MUNTHER

NORAD 63240 · 2025-052AG

PAYLOAD ACTIVE UNKNOWN

§ Identity

Operator
Country
BHR
Launch date
2025-03-15
Launch site
AFWTR
Launch vehicle
Mass (kg)
RCS (m²)

External: N2YO · Heavens-Above · Gunter

§ Orbital elements

Epoch: 2026-05-25T04:12:17.515008Z

Period
94.06 min
Inclination
97.3913°
Eccentricity
0.0004948
Mean motion
15.30982238 rev/d
Perigee alt
469.5 km
Apogee alt
476.3 km
Semi-major
6,851.0 km
B*
5.7924e-4
RAAN
40.0591°
Arg perigee
213.7158°
Mean anomaly
146.3769°
Rev number
6,649

§ Raw data

AL MUNTHER1 63240U 25052AG  26145.17520272  .00017289  00000+0  57924-3 0  99992 63240  97.3913  40.0591 0004948 213.7158 146.3769 15.30982238 66492

JSON: /api/v1/satellites/63240 · /tle

For live sub-satellite position, see the globe view (requires WebGL).

§ Visibility from observer

Set your observer location to see the next 7 days of passes ≥ 10°. The values pass through the URL so the page stays shareable.

No JS? Fill the form by hand. The geolocation button needs JavaScript.

§ Radio — SatNOGS DB

ModeDescriptionDownlinkUplink
BPSK Mode U - Transmitter AX.25 G3RUH 401.175 MHz
BPSK Mode U - Transmitter AX.25 G3RUH 436.500 MHz

2 transmitters · refreshed weekly from db.satnogs.org